Regional Weather Roundup
Issued by NWS

Home | Current Version | Previous Version | Graphics & Text | Print | Product List | Glossary On
Versions: 1 2 3 4 5 6 7 8 9 10 11 12 13 14 15 16 17 18 19 20 21 22 23 24 25 26 27 28 29 30 31 32 33 34 35 36 37 38 39 40 41 42 43 44 45 46 47 48 49 50
000
ASUS43 KBIS 290120
RWRND

NORTH DAKOTA REGIONAL WEATHER ROUNDUP
NATIONAL WEATHER SERVICE BISMARCK ND
800 PM CDT MON JUL 28 2014

NOTE: "FAIR" INDICATES FEW OR NO CLOUDS BELOW 12,000 FEET WITH NO
SIGNIFICANT WEATHER AND/OR OBSTRUCTIONS TO VISIBILITY.


NDZ001>003-009>011-017-290200-
NORTHWEST NORTH DAKOTA

CITY           SKY/WX    TMP DP  RH WIND       PRES   REMARKS
WILLISTON      SUNNY     80  49  33 SE7       30.20F
MINOT          SUNNY     71  56  58 NE3       30.22F
MINOT AFB      SUNNY     73  55  54 E6        30.22F
$$

NDZ018>021-031>035-040>046-290200-
SOUTHWEST NORTH DAKOTA

CITY           SKY/WX    TMP DP  RH WIND       PRES   REMARKS
BISMARCK       SUNNY     73  51  46 E8        30.23F
DICKINSON      SUNNY     74  56  53 E7        30.23F
GARRISON         N/A     71  57  61 SE5       30.23F
HETTINGER ARPT MOSUNNY   73  51  46 E9        30.25F
$$

NDZ004>008-012>016-024-026-027-054-290200-
NORTHEAST NORTH DAKOTA

CITY           SKY/WX    TMP DP  RH WIND       PRES   REMARKS
GRAND FORKS    PTCLDY    71  57  61 N5        30.18F
GRND FRKS AFB  CLEAR     70  57  62 N3        30.20S
DEVILS LAKE    SUNNY     70  52  52 W5        30.21S
$$

NDZ022-023-025-028>030-036>039-047>053-290200-
SOUTHEAST NORTH DAKOTA

CITY           SKY/WX    TMP DP  RH WIND       PRES   REMARKS
FARGO          CLEAR     72  54  53 W7        30.18F
JAMESTOWN      MOSUNNY   69  52  54 N3        30.22F
$$



USA.gov is the U.S. government's official web portal to all federal, state and local government web resources and services.